Location: Bakov nad Jizerou
(50.4784°N, 14.9394°E)
Time: 09:22:30
(UTC+00:00)

MOZ.5/SAFIR/RUBIN 5/SL-8 - Pass Details

Date: 16 June 2021
Orbit: 677 x 706 km, 98.1° (Epoch: 04 August)

Event Time Altitude Azimuth Distance (km) Brightness Sun altitude
Exits shadow 23:38:42 14° 142° (SE) 1,884 5.6 -15.7°
Maximum altitude 23:42:34 51° 69° (ENE) 880 4.5 -15.6°
Drops below altitude 10° 23:47:12 10° 354° (N) 2,184 7.6 -15.4°
Sets 23:49:31 0° 350° (N) 3,110 8.5 -15.4°
